Stündliche Wetter Aarberg

Heute, 18 Juni, Freitag

Zeit Temperatur Niederschläge Wind Luftdruck Luftfeuchtigkeit
00:00 +19°C° 0.6 mm 1 m/S 717 mmHg 95%
01:00 +19°C° 0.2 mm 1 m/S 717 mmHg 95%
02:00 +19°C° 0.2 mm 1 m/S 717 mmHg 95%
03:00 +19°C° 0.2 mm 1 m/S 716 mmHg 94%
04:00 +20°C° 0 mm 1 m/S 716 mmHg 92%
05:00 +21°C° 0 mm 1 m/S 716 mmHg 90%
06:00 +20°C° 0 mm 0 m/S 716 mmHg 88%
07:00 +24°C° 0 mm 1 m/S 716 mmHg 79%
08:00 +26°C° 0 mm 1 m/S 716 mmHg 69%
09:00 +27°C° 0 mm 1 m/S 716 mmHg 59%
10:00 +28°C° 0.1 mm 1 m/S 716 mmHg 58%
11:00 +29°C° 0.1 mm 1 m/S 716 mmHg 57%
12:00 +30°C° 0.1 mm 1 m/S 716 mmHg 55%
13:00 +29°C° 0.7 mm 2 m/S 717 mmHg 60%
14:00 +29°C° 0.7 mm 2 m/S 717 mmHg 65%
15:00 +28°C° 0.7 mm 2 m/S 717 mmHg 70%
16:00 +26°C° 2.4 mm 2 m/S 717 mmHg 77%
17:00 +25°C° 2.4 mm 1 m/S 717 mmHg 83%
18:00 +23°C° 2.4 mm 1 m/S 718 mmHg 90%
19:00 +22°C° 0.7 mm 1 m/S 718 mmHg 91%
20:00 +20°C° 0.7 mm 1 m/S 718 mmHg 92%
21:00 +19°C° 0.7 mm 1 m/S 718 mmHg 93%
22:00 +19°C° 0 mm 1 m/S 718 mmHg 92%
23:00 +19°C° 0 mm 1 m/S 718 mmHg 92%

Morgen, 19 Juni, Samstag

Zeit Temperatur Niederschläge Wind Luftdruck Luftfeuchtigkeit
00:00 +19°C° 0 mm 1 m/S 718 mmHg 92%
01:00 +19°C° 0 mm 1 m/S 718 mmHg 92%
02:00 +18°C° 0 mm 1 m/S 718 mmHg 92%
03:00 +18°C° 0 mm 1 m/S 718 mmHg 92%
04:00 +19°C° 0 mm 1 m/S 718 mmHg 91%
05:00 +18°C° 0 mm 0 m/S 718 mmHg 90%
06:00 +19°C° 0 mm 0 m/S 718 mmHg 89%
07:00 +23°C° 0 mm 1 m/S 718 mmHg 80%
08:00 +25°C° 0 mm 1 m/S 718 mmHg 71%
09:00 +27°C° 0 mm 1 m/S 718 mmHg 62%
10:00 +28°C° 0 mm 1 m/S 718 mmHg 57%
11:00 +29°C° 0 mm 1 m/S 717 mmHg 52%
12:00 +31°C° 0 mm 2 m/S 717 mmHg 48%
13:00 +31°C° 0 mm 1 m/S 717 mmHg 48%
14:00 +31°C° 0 mm 1 m/S 717 mmHg 47%
15:00 +31°C° 0 mm 1 m/S 716 mmHg 47%
16:00 +30°C° 0.1 mm 1 m/S 716 mmHg 57%
17:00 +28°C° 0.1 mm 1 m/S 715 mmHg 66%
18:00 +26°C° 0.1 mm 1 m/S 715 mmHg 75%
19:00 +25°C° 0 mm 1 m/S 715 mmHg 77%
20:00 +24°C° 0 mm 1 m/S 715 mmHg 79%
21:00 +22°C° 0 mm 1 m/S 715 mmHg 81%
22:00 +22°C° 0 mm 1 m/S 714 mmHg 81%
23:00 +21°C° 0 mm 1 m/S 714 mmHg 82%

übermorgen, 20 Juni, Sonntag

Zeit Temperatur Niederschläge Wind Luftdruck Luftfeuchtigkeit
00:00 +21°C° 0 mm 1 m/S 713 mmHg 82%
01:00 +20°C° 0 mm 1 m/S 713 mmHg 83%
02:00 +20°C° 0 mm 1 m/S 713 mmHg 83%
03:00 +20°C° 0 mm 1 m/S 712 mmHg 84%
04:00 +20°C° 0 mm 1 m/S 712 mmHg 83%
05:00 +21°C° 0 mm 1 m/S 712 mmHg 82%
06:00 +22°C° 0 mm 1 m/S 712 mmHg 81%
07:00 +23°C° 0.3 mm 1 m/S 712 mmHg 79%
08:00 +24°C° 0.3 mm 1 m/S 712 mmHg 78%
09:00 +24°C° 0.3 mm 2 m/S 713 mmHg 76%
10:00 +24°C° 1 mm 2 m/S 713 mmHg 79%
11:00 +24°C° 1 mm 2 m/S 713 mmHg 82%
12:00 +22°C° 1 mm 3 m/S 713 mmHg 86%
13:00 +24°C° 1.3 mm 2 m/S 713 mmHg 84%
14:00 +24°C° 1.3 mm 2 m/S 713 mmHg 82%
15:00 +24°C° 1.3 mm 1 m/S 713 mmHg 80%
16:00 +23°C° 0.7 mm 1 m/S 713 mmHg 84%
17:00 +21°C° 0.7 mm 2 m/S 713 mmHg 89%
18:00 +20°C° 0.7 mm 2 m/S 712 mmHg 93%
19:00 +20°C° 0.4 mm 1 m/S 712 mmHg 94%
20:00 +19°C° 0.4 mm 1 m/S 712 mmHg 94%
21:00 +18°C° 0.4 mm 1 m/S 712 mmHg 95%
22:00 +18°C° 0.6 mm 1 m/S 712 mmHg 95%
23:00 +18°C° 0.6 mm 1 m/S 712 mmHg 95%

21 Juni, Montag

Zeit Temperatur Niederschläge Wind Luftdruck Luftfeuchtigkeit
00:00 +18°C° 0.6 mm 1 m/S 712 mmHg 95%
01:00 +18°C° 0.1 mm 1 m/S 712 mmHg 95%
02:00 +18°C° 0.1 mm 1 m/S 712 mmHg 95%
03:00 +16°C° 0.1 mm 1 m/S 712 mmHg 95%
04:00 +18°C° 0.1 mm 1 m/S 712 mmHg 95%
05:00 +16°C° 0.1 mm 0 m/S 712 mmHg 94%
06:00 +17°C° 0.1 mm 0 m/S 712 mmHg 93%
07:00 +19°C° 0.1 mm 0 m/S 712 mmHg 85%
08:00 +20°C° 0.1 mm 0 m/S 712 mmHg 76%
09:00 +22°C° 0.1 mm 0 m/S 712 mmHg 68%
10:00 +25°C° 0.3 mm 1 m/S 712 mmHg 63%
11:00 +26°C° 0.3 mm 1 m/S 712 mmHg 58%
12:00 +27°C° 0.3 mm 1 m/S 713 mmHg 52%
13:00 +26°C° 0.3 mm 1 m/S 713 mmHg 58%
14:00 +25°C° 0.3 mm 1 m/S 713 mmHg 63%
15:00 +24°C° 0.3 mm 1 m/S 712 mmHg 69%
16:00 +23°C° 0.4 mm 1 m/S 712 mmHg 75%
17:00 +22°C° 0.4 mm 1 m/S 713 mmHg 82%
18:00 +20°C° 0.4 mm 1 m/S 713 mmHg 88%
19:00 +20°C° 1 mm 1 m/S 713 mmHg 90%
20:00 +19°C° 1 mm 1 m/S 714 mmHg 93%
21:00 +18°C° 1 mm 1 m/S 714 mmHg 95%
22:00 +18°C° 0.5 mm 1 m/S 714 mmHg 95%
23:00 +18°C° 0.5 mm 1 m/S 714 mmHg 95%

22 Juni, Dienstag

Zeit Temperatur Niederschläge Wind Luftdruck Luftfeuchtigkeit
00:00 +16°C° 0.5 mm 1 m/S 714 mmHg 95%
01:00 +16°C° 0.1 mm 1 m/S 714 mmHg 95%
02:00 +15°C° 0.1 mm 0 m/S 715 mmHg 95%
03:00 +15°C° 0.1 mm 0 m/S 715 mmHg 95%
04:00 +15°C° 0.1 mm 0 m/S 715 mmHg 95%
05:00 +15°C° 0.1 mm 0 m/S 715 mmHg 95%
06:00 +16°C° 0.1 mm 0 m/S 715 mmHg 95%
07:00 +17°C° 0.3 mm 0 m/S 715 mmHg 91%
08:00 +17°C° 0.3 mm 0 m/S 715 mmHg 86%
09:00 +20°C° 0.3 mm 1 m/S 715 mmHg 82%
10:00 +21°C° 0.8 mm 1 m/S 715 mmHg 82%
11:00 +21°C° 0.8 mm 1 m/S 715 mmHg 82%
12:00 +21°C° 0.8 mm 1 m/S 715 mmHg 81%
13:00 +21°C° 1.4 mm 1 m/S 715 mmHg 83%
14:00 +20°C° 1.4 mm 1 m/S 715 mmHg 85%
15:00 +20°C° 1.4 mm 1 m/S 715 mmHg 86%
16:00 +19°C° 1.8 mm 1 m/S 715 mmHg 89%
17:00 +18°C° 1.8 mm 1 m/S 716 mmHg 91%
18:00 +16°C° 1.8 mm 1 m/S 716 mmHg 93%
19:00 +16°C° 1.8 mm 1 m/S 716 mmHg 94%
20:00 +15°C° 1.8 mm 1 m/S 717 mmHg 94%
21:00 +14°C° 1.8 mm 1 m/S 717 mmHg 95%
22:00 +14°C° 0.4 mm 1 m/S 717 mmHg 95%
23:00 +14°C° 0.4 mm 1 m/S 717 mmHg 95%

23 Juni, Mittwoch

Zeit Temperatur Niederschläge Wind Luftdruck Luftfeuchtigkeit
00:00 +14°C° 0.4 mm 1 m/S 718 mmHg 95%
01:00 +14°C° 0.1 mm 1 m/S 718 mmHg 95%
02:00 +13°C° 0.1 mm 1 m/S 718 mmHg 96%
03:00 +13°C° 0.1 mm 1 m/S 717 mmHg 96%
04:00 +14°C° 0.1 mm 1 m/S 718 mmHg 95%
05:00 +14°C° 0.1 mm 1 m/S 718 mmHg 95%
06:00 +15°C° 0.1 mm 1 m/S 718 mmHg 94%
07:00 +15°C° 0.1 mm 2 m/S 719 mmHg 89%
08:00 +16°C° 0.1 mm 2 m/S 719 mmHg 83%
09:00 +17°C° 0.1 mm 2 m/S 719 mmHg 78%
10:00 +16°C° 0.2 mm 2 m/S 719 mmHg 79%
11:00 +16°C° 0.2 mm 2 m/S 720 mmHg 80%
12:00 +16°C° 0.2 mm 2 m/S 720 mmHg 81%
13:00 +16°C° 0.1 mm 2 m/S 720 mmHg 81%
14:00 +16°C° 0.1 mm 2 m/S 721 mmHg 81%
15:00 +15°C° 0.1 mm 2 m/S 721 mmHg 81%
16:00 +15°C° 0.1 mm 2 m/S 721 mmHg 83%
17:00 +14°C° 0.1 mm 1 m/S 721 mmHg 84%
18:00 +14°C° 0.1 mm 1 m/S 722 mmHg 86%
19:00 +13°C° 0 mm 1 m/S 722 mmHg 86%
20:00 +13°C° 0 mm 1 m/S 722 mmHg 87%
21:00 +13°C° 0 mm 1 m/S 722 mmHg 88%
22:00 +12°C° 0 mm 1 m/S 722 mmHg 89%
23:00 +12°C° 0 mm 1 m/S 722 mmHg 90%
Mehr zeigen

Wir brauchen deine Erlaubnis

Meteoprog und unser Service Anbieter werden persönliche Daten aufbewahren, so wie Cookies, Geräte Bezeichnung oder ähnliche Technologien von deinem Gerät und Prozess, so wie Persönliche Daten Inhalte und Werbungen, genauso wie social Media und den Verkehr zu analysieren.

  • Aufbewahrung und/oder Zugang zu deiner Geräte Informationen.

    Cookies, Geräte Bezeichnung oder andere Informationen, können aufbewahrt oder Zugang zu deinem Gerät erhalten, für den Grund, der oben angegeben wird.

  • Personalisierte Werbung und Inhalte, Messungen, Einblick in das Publikum und Produkt Entwicklung.

    Werbungen und Inhalte können personalisiert werden, basierend auf ein Profil. Mehr Daten können besser personalisierte Werbungen und Inhalte hinzufügen. Werbung und Inhalte können gezeigt und gemessen werden. Einblicke über das Publikum, welche die Werbung gesehen haben und den Inhalt, können abgeleitet werden. So wie Daten können genutzt werden, um es zu verbessern oder die Benutzer Erfahrung zu verbessern das System und die Software.

Wenn du “Ich stimme zu” klickst, erlaubst du uns, die Cookies zu benutzen die Geräte Bezeichnung, den Web oder ähnliche Technologien zu benutzen. Deine Settings, können in deinem Gerät bei deinem Browser geändert werden.

Für den bestimmten Zweck, berechtigten Interessen beruhen darauf, mehr als auf den Inhalt. Du kannst mehr darüber in unseren Privaten und Cookie Politik lesen.